Погода в Нелидово

Россия / Тверская область     56°13′23″N   32°46′35″E
темп.,
°C
ветер,
м/с
пор.,
м/с
влажн.,
%
обл.,
%
осадки,
мм/ч
давл.,
гПа
погр.,
м
14 апреля, ср
ср1400:00+11ююв229575 1.1 101853
03:00+10ю1299100 1.3 101745
06:00+9ю2499100 0.1 1016100
09:00+11ю2692100 0.3 1016356
12:00+13юз258046 0.1 1017524
15:00+16юз356039 0.5 10161353
18:00+12ссз458195 1.0 1017458
21:00+8с379296 1.1 1019273
15 апреля, чт
чт1500:00+7с3893100 0.3 1019339
03:00+7ссв4993100 0.4 1019410
06:00+6ссв41192100 0.1 1019481
09:00+7св41191100 0.1 1020576
12:00+7св51187100 0.4 1020606
15:00+7св51286100 0.4 1021622
18:00+6св51387100 0.0 1021805
21:00+6св61588100 0.0 1021667
16 апреля, пт
пт1600:00+5всв61589100 0.0 1021613
03:00+5всв61488100 0.1 1021695
06:00+5всв51389100 0.1 1022676
09:00+6всв61382100 0.1 1022675
12:00+7всв61277100 0.0 1023725
15:00+8всв6117498 0.1 1023824
18:00+9всв61171100 0.0 1023944
21:00+8всв51375100 0.0 1024770
17 апреля, сб
сб1700:00+6всв5147364 0.0 1025652
03:00+5всв51371100 0.0 1026471
06:00+5всв51372100 0.0 1027461
09:00+7всв5146399 0.0 1028578
12:00+11в61050100 0.0 1028904
15:00+12в693996 0.0 10281273
18:00+12всв594372 0.0 10281278
21:00+7всв412585 0.0 1029395
18 апреля, вс
вс1800:00+5всв4136538 0.0 1030432
03:00+4всв412735 0.0 1030329
06:00+2всв312780 0.0 1031310
09:00+8в511561 0.0 1030745
12:00+12в58415 0.0 10301488
15:00+13в56385 0.0 10291841
18:00+12в364428 0.0 10291754
21:00+7всв376732 0.0 1030122